Вернуться в каталог

STARLINK-30494

АктивенСвязьVLEO
NORAD 57970·PAYLOAD·🇺🇸 United States

Запущен Sep 30, 2023 с Cape Canaveral Space Force Station

Loading…

Ближайшие Пролёты (ближайшие 24 часа)

TLE

СвежийSource: CelesTrak SupGP

Эпоха: Sep 14, 2026, 14:09 UTC

1 57970C 23151G   26257.59006944 -.00052705  00000+0 -19093-2 0  2570
2 57970  43.0024 203.7424 0001575 264.6433 125.2143 15.27598788    10

Отслеживайте STARLINK-30494 в реальном времени с AllMySat

Download on the App Store